When you browse on this site, cookies collect data to enhance your experience and personalize the content and advertising you see.
Visit our Privacy Policy to learn more. By continuing to use the site, you agree to this use of cookies and data.
  • In Hungary
  • List of Countries
  • For 7 days
  • Water Temperature
  • Weather Map
  • News
  • Weather Widgets
  • user-avatar
    Login

    Hourly Weather Orzhevka

    Today, 24 January, Friday

    Time Temperature Precipitation Wind Pressure Humidity
    00:00 -14°C° 0 mm 4 mps 743 mmHg 90%
    01:00 -15°C° 0 mm 4 mps 744 mmHg 90%
    02:00 -15°C° 0 mm 4 mps 744 mmHg 91%
    03:00 -15°C° 0 mm 3 mps 744 mmHg 92%
    04:00 -16°C° 0 mm 3 mps 745 mmHg 93%
    05:00 -16°C° 0 mm 3 mps 745 mmHg 93%
    06:00 -16°C° 0 mm 3 mps 745 mmHg 93%
    07:00 -16°C° 0 mm 3 mps 745 mmHg 94%
    08:00 -16°C° 0 mm 3 mps 746 mmHg 94%
    09:00 -16°C° 0 mm 3 mps 746 mmHg 95%
    10:00 -16°C° 0 mm 4 mps 746 mmHg 94%
    11:00 -14°C° 0 mm 4 mps 745 mmHg 93%
    12:00 -12°C° 0 mm 4 mps 745 mmHg 93%
    13:00 -12°C° 0 mm 5 mps 745 mmHg 92%
    14:00 -11°C° 0 mm 5 mps 744 mmHg 91%
    15:00 -11°C° 0 mm 6 mps 744 mmHg 90%
    16:00 -10°C° 0 mm 6 mps 743 mmHg 91%
    17:00 -11°C° 0 mm 7 mps 743 mmHg 92%
    18:00 -9°C° 0 mm 7 mps 742 mmHg 93%
    19:00 -8°C° 0.3 mm 8 mps 741 mmHg 93%
    20:00 -8°C° 0.3 mm 8 mps 741 mmHg 93%
    21:00 -7°C° 0.3 mm 8 mps 740 mmHg 94%
    22:00 -6°C° 0.3 mm 8 mps 739 mmHg 94%
    23:00 -6°C° 0.3 mm 8 mps 738 mmHg 95%

    Tomorrow, 25 January, Saturday

    Time Temperature Precipitation Wind Pressure Humidity
    00:00 -6°C° 0.3 mm 8 mps 737 mmHg 95%
    01:00 -5°C° 0.4 mm 8 mps 737 mmHg 97%
    02:00 -4°C° 0.4 mm 8 mps 737 mmHg 98%
    03:00 -1°C° 0.4 mm 8 mps 736 mmHg 99%
    04:00 -2°C° 0.1 mm 7 mps 737 mmHg 97%
    05:00 -2°C° 0.1 mm 6 mps 737 mmHg 96%
    06:00 -2°C° 0.1 mm 6 mps 737 mmHg 94%
    07:00 -1°C° 0 mm 5 mps 737 mmHg 94%
    08:00 -2°C° 0 mm 5 mps 737 mmHg 94%
    09:00 -4°C° 0 mm 5 mps 737 mmHg 94%
    10:00 -3°C° 0.1 mm 6 mps 737 mmHg 95%
    11:00 -2°C° 0.1 mm 6 mps 737 mmHg 97%
    12:00 -2°C° 0.1 mm 7 mps 737 mmHg 98%
    13:00 -2°C° 0.1 mm 7 mps 736 mmHg 97%
    14:00 -2°C° 0.1 mm 7 mps 736 mmHg 97%
    15:00 -2°C° 0.1 mm 7 mps 736 mmHg 96%
    16:00 -2°C° 0.1 mm 7 mps 735 mmHg 96%
    17:00 -2°C° 0.1 mm 7 mps 735 mmHg 97%
    18:00 -2°C° 0.1 mm 7 mps 734 mmHg 97%
    19:00 -2°C° 0.5 mm 8 mps 734 mmHg 97%
    20:00 -3°C° 0.5 mm 9 mps 733 mmHg 96%
    21:00 -3°C° 0.5 mm 10 mps 733 mmHg 96%
    22:00 -4°C° 0.1 mm 10 mps 733 mmHg 90%
    23:00 -5°C° 0.1 mm 9 mps 734 mmHg 85%

    Day after tomorrow, 26 January, Sunday

    Time Temperature Precipitation Wind Pressure Humidity
    00:00 -6°C° 0.1 mm 9 mps 734 mmHg 80%
    01:00 -6°C° 0 mm 8 mps 735 mmHg 81%
    02:00 -7°C° 0 mm 8 mps 735 mmHg 82%
    03:00 -8°C° 0 mm 7 mps 736 mmHg 83%
    04:00 -8°C° 0 mm 7 mps 736 mmHg 85%
    05:00 -8°C° 0 mm 7 mps 737 mmHg 87%
    06:00 -8°C° 0 mm 7 mps 737 mmHg 88%
    07:00 -8°C° 0 mm 7 mps 738 mmHg 89%
    08:00 -8°C° 0 mm 7 mps 738 mmHg 89%
    09:00 -8°C° 0 mm 7 mps 739 mmHg 90%
    10:00 -8°C° 0 mm 7 mps 740 mmHg 88%
    11:00 -7°C° 0 mm 8 mps 741 mmHg 87%
    12:00 -7°C° 0 mm 8 mps 742 mmHg 85%
    13:00 -7°C° 0 mm 7 mps 743 mmHg 85%
    14:00 -6°C° 0 mm 6 mps 744 mmHg 85%
    15:00 -6°C° 0 mm 6 mps 744 mmHg 86%
    16:00 -7°C° 0 mm 5 mps 745 mmHg 87%
    17:00 -7°C° 0 mm 5 mps 746 mmHg 87%
    18:00 -8°C° 0 mm 5 mps 746 mmHg 88%
    19:00 -8°C° 0 mm 5 mps 747 mmHg 89%
    20:00 -10°C° 0 mm 5 mps 747 mmHg 90%
    21:00 -10°C° 0 mm 5 mps 747 mmHg 90%
    22:00 -10°C° 0 mm 5 mps 747 mmHg 90%
    23:00 -10°C° 0 mm 5 mps 747 mmHg 90%

    27 January, Monday

    Time Temperature Precipitation Wind Pressure Humidity
    00:00 -10°C° 0 mm 5 mps 747 mmHg 90%
    01:00 -8°C° 0 mm 5 mps 747 mmHg 89%
    02:00 -8°C° 0 mm 5 mps 747 mmHg 89%
    03:00 -7°C° 0 mm 5 mps 746 mmHg 88%
    04:00 -7°C° 0.1 mm 5 mps 746 mmHg 90%
    05:00 -6°C° 0.1 mm 6 mps 746 mmHg 92%
    06:00 -6°C° 0.1 mm 6 mps 746 mmHg 94%
    07:00 -6°C° 0 mm 6 mps 746 mmHg 94%
    08:00 -5°C° 0 mm 6 mps 746 mmHg 93%
    09:00 -5°C° 0 mm 6 mps 745 mmHg 93%
    10:00 -4°C° 0.1 mm 6 mps 746 mmHg 94%
    11:00 -3°C° 0.1 mm 6 mps 746 mmHg 96%
    12:00 -3°C° 0.1 mm 7 mps 746 mmHg 97%
    13:00 -2°C° 0 mm 6 mps 746 mmHg 97%
    14:00 -2°C° 0 mm 6 mps 746 mmHg 98%
    15:00 -2°C° 0 mm 6 mps 746 mmHg 98%
    16:00 -2°C° 0 mm 6 mps 747 mmHg 97%
    17:00 -1°C° 0 mm 5 mps 747 mmHg 96%
    18:00 -1°C° 0 mm 5 mps 747 mmHg 95%
    19:00 -2°C° 0 mm 5 mps 747 mmHg 95%
    20:00 -2°C° 0 mm 5 mps 747 mmHg 95%
    21:00 -2°C° 0 mm 5 mps 747 mmHg 94%
    22:00 -2°C° 0 mm 5 mps 747 mmHg 94%
    23:00 -4°C° 0 mm 5 mps 747 mmHg 94%

    28 January, Tuesday

    Time Temperature Precipitation Wind Pressure Humidity
    00:00 -3°C° 0 mm 4 mps 747 mmHg 94%
    01:00 -3°C° 0 mm 4 mps 747 mmHg 95%
    02:00 -3°C° 0 mm 4 mps 747 mmHg 95%
    03:00 -3°C° 0 mm 4 mps 747 mmHg 95%
    04:00 -3°C° 0 mm 4 mps 747 mmHg 95%
    05:00 -2°C° 0 mm 3 mps 747 mmHg 95%
    06:00 -2°C° 0 mm 3 mps 747 mmHg 95%
    07:00 -4°C° 0 mm 3 mps 747 mmHg 95%
    08:00 -4°C° 0 mm 3 mps 747 mmHg 96%
    09:00 -4°C° 0 mm 3 mps 747 mmHg 96%
    10:00 -2°C° 0 mm 3 mps 747 mmHg 96%
    11:00 -2°C° 0 mm 3 mps 747 mmHg 96%
    12:00 -1°C° 0 mm 3 mps 747 mmHg 95%
    13:00 -1°C° 0 mm 3 mps 747 mmHg 96%
    14:00 -1°C° 0 mm 3 mps 747 mmHg 96%
    15:00 -1°C° 0 mm 3 mps 747 mmHg 96%
    16:00 -1°C° 0.1 mm 3 mps 747 mmHg 96%
    17:00 -1°C° 0.1 mm 3 mps 747 mmHg 97%
    18:00 -1°C° 0.1 mm 3 mps 747 mmHg 97%
    19:00 -1°C° 0.1 mm 3 mps 747 mmHg 97%
    20:00 -1°C° 0.1 mm 3 mps 747 mmHg 97%
    21:00 -2°C° 0.1 mm 3 mps 747 mmHg 97%
    22:00 -2°C° 0.1 mm 3 mps 748 mmHg 97%
    23:00 -2°C° 0.1 mm 3 mps 748 mmHg 97%

    29 January, Wednesday

    Time Temperature Precipitation Wind Pressure Humidity
    00:00 -2°C° 0.1 mm 3 mps 748 mmHg 97%
    01:00 -2°C° 0.1 mm 3 mps 748 mmHg 97%
    02:00 -2°C° 0.1 mm 3 mps 748 mmHg 97%
    03:00 -3°C° 0.1 mm 2 mps 748 mmHg 97%
    04:00 -4°C° 0 mm 3 mps 748 mmHg 97%
    05:00 -4°C° 0 mm 3 mps 748 mmHg 97%
    06:00 -4°C° 0 mm 3 mps 748 mmHg 97%
    07:00 -4°C° 0.1 mm 3 mps 748 mmHg 97%
    08:00 -4°C° 0.1 mm 3 mps 748 mmHg 96%
    09:00 -4°C° 0.1 mm 3 mps 748 mmHg 96%
    10:00 -4°C° 0 mm 3 mps 748 mmHg 96%
    11:00 -4°C° 0 mm 4 mps 748 mmHg 95%
    12:00 -3°C° 0 mm 4 mps 748 mmHg 95%
    13:00 -3°C° 0 mm 4 mps 748 mmHg 95%
    14:00 -3°C° 0 mm 4 mps 748 mmHg 96%
    15:00 -3°C° 0 mm 4 mps 748 mmHg 96%
    16:00 -2°C° 0.1 mm 4 mps 748 mmHg 97%
    17:00 -2°C° 0.1 mm 4 mps 748 mmHg 97%
    18:00 -1°C° 0.1 mm 4 mps 748 mmHg 98%
    19:00 -1°C° 0 mm 5 mps 748 mmHg 98%
    20:00 -1°C° 0 mm 5 mps 748 mmHg 99%
    21:00 -1°C° 0 mm 5 mps 747 mmHg 99%
    22:00 -1°C° 0 mm 5 mps 747 mmHg 99%
    23:00 -1°C° 0 mm 5 mps 747 mmHg 99%
    Show more